Weather History for Wolf Point, MT

Change the Weather History Date:

Thursday, May 23, 2013

  Actual Average Record
Temperature  
Mean Temperature 58 °F -  
Max Temperature 71 °F 71 °F 91 °F (2014)
Min Temperature 45 °F 42 °F 30 °F (2001)
Degree Days  
Heating Degree Days 7    
Cooling Degree Days 0    
Growing Degree Days 8 (Base 50)    
Moisture  
Dew Point 41 °F    
Average Humidity 51    
Maximum Humidity 80    
Minimum Humidity 30    
Precipitation  
Precipitation 0.00 in 0.06 in 0.66 in (2004)
Month to date precipitation 0.44 1.09  
Year to date precipitation 1.42 3.01  
Sea Level Pressure  
Sea Level Pressure 30.05 in    
Wind  
Wind Speed 14 mph (ESE)    
Max Wind Speed 28 mph    
Max Gust Speed 40 mph    
Visibility 10 miles    
Events      
T = Trace of Precipitation, MM = Missing Value Source: NWS Daily Summary

Daily Weather History Graph

Daily Weather History Graph

Search for Another Location

Airport:

Trip Planner

Search our weather history database for the weather conditions in past years. The results will help you decide how hot, cold, wet, or windy it might be!

Date:

Astronomy

May. 23, 2013 Rise Set
Actual Time 5:13 AM MDT 8:45 PM MDT
Civil Twilight 4:35 AM MDT 9:23 PM MDT
Nautical Twilight 3:43 AM MDT 10:15 PM MDT
Astronomical Twilight 2:34 AM MDT 11:25 PM MDT
Moon 7:15 PM MDT (5/23) 4:08 AM MDT (5/23)
Length of Visible Light 16h 48m
Length of Day
15h 31m
Waxing Gibbous, 97% of the Moon is Illuminated
May 23
Waxing Gibbous
May 24
Full
May 31
Last Quarter
Jun 8
New
Jun 16
First Quarter

Hourly Weather History & Observations

Time (MDT) Temp. Windchill Dew Point Humidity Pressure Visibility Wind Dir Wind Speed Gust Speed Precip Events Conditions
12:53 AM 48.0 °F - 37.0 °F 66% 30.15 in 10.0 mi ENE 9.2 mph - N/A   Clear
1:53 AM 48.0 °F - 37.9 °F 68% 30.16 in 10.0 mi ENE 10.4 mph - N/A   Clear
2:53 AM 46.9 °F - 39.0 °F 74% 30.15 in 10.0 mi East 9.2 mph - N/A   Clear
3:53 AM 46.0 °F 41.9 °F 39.0 °F 76% 30.17 in 10.0 mi ENE 8.1 mph - N/A   Clear
4:53 AM 46.9 °F - 41.0 °F 80% 30.16 in 10.0 mi East 10.4 mph - N/A   Clear
5:53 AM 48.9 °F - 43.0 °F 80% 30.15 in 10.0 mi East 12.7 mph - N/A   Clear
6:53 AM 50.0 °F - 44.1 °F 80% 30.15 in 10.0 mi East 15.0 mph - N/A   Clear
7:53 AM 55.0 °F - 45.0 °F 69% 30.14 in 10.0 mi East 15.0 mph - N/A   Clear
8:53 AM 59.0 °F - 44.1 °F 58% 30.13 in 10.0 mi ESE 19.6 mph 25.3 mph N/A   Clear
9:53 AM 63.0 °F - 45.0 °F 52% 30.11 in 10.0 mi East 21.9 mph 26.5 mph N/A   Clear
10:53 AM 66.0 °F - 41.0 °F 40% 30.09 in 10.0 mi ESE 27.6 mph 39.1 mph N/A   Clear
11:53 AM 70.0 °F - 41.0 °F 35% 30.07 in 10.0 mi SE 17.3 mph 32.2 mph N/A   Clear
12:53 PM 71.1 °F - 37.9 °F 30% 30.04 in 10.0 mi SE 19.6 mph 40.3 mph N/A   Clear
1:53 PM 69.1 °F - 37.9 °F 32% 30.02 in 10.0 mi ESE 21.9 mph 34.5 mph N/A   Clear
2:53 PM 69.1 °F - 39.0 °F 33% 30.01 in 10.0 mi ESE 19.6 mph 33.4 mph N/A   Clear
3:53 PM 70.0 °F - 39.0 °F 32% 29.99 in 10.0 mi ESE 23.0 mph 35.7 mph N/A   Mostly Cloudy
4:53 PM 70.0 °F - 39.9 °F 33% 29.98 in 10.0 mi ESE 20.7 mph 33.4 mph N/A   Mostly Cloudy
5:53 PM 70.0 °F - 39.9 °F 33% 29.97 in 10.0 mi ESE 20.7 mph 32.2 mph N/A   Scattered Clouds
6:53 PM 69.1 °F - 42.1 °F 38% 29.95 in 10.0 mi SE 17.3 mph 27.6 mph N/A   Scattered Clouds
7:53 PM 66.9 °F - 41.0 °F 39% 29.93 in 10.0 mi ESE 16.1 mph 26.5 mph N/A   Clear
8:53 PM 64.0 °F - 41.0 °F 43% 29.94 in 10.0 mi ESE 13.8 mph - N/A   Partly Cloudy
9:53 PM 64.0 °F - 41.0 °F 43% 29.94 in 10.0 mi ESE 15.0 mph 24.2 mph N/A   Overcast
10:53 PM 63.0 °F - 43.0 °F 48% 29.93 in 10.0 mi East 16.1 mph 25.3 mph N/A   Overcast
11:53 PM 61.0 °F - 43.0 °F 52% 29.90 in 10.0 mi East 12.7 mph 23.0 mph N/A   Overcast